Time,TemperatureF,DewpointF,PressureIn,WindDirection,WindDirectionDegrees,WindSpeedMPH,WindSpeedGustMPH,Humidity,HourlyPrecipIn,Conditions,Clouds,dailyrainin,SoftwareType,DateUTC
2013-06-14 00:01:00,62.2,50.3,29.85,NW,314,9.1,10.5,65,0.00,,CLR,0.00,VWS V14.00,2013-06-14 04:01:00,
2013-06-14 00:02:00,62.2,50.3,29.85,NNW,337,11.6,13.2,65,0.00,,CLR,0.00,VWS V14.00,2013-06-14 04:02:00,
2013-06-14 00:03:00,62.2,50.3,29.85,NNW,332,9.1,13.2,65,0.00,,CLR,0.00,VWS V14.00,2013-06-14 04:03:00,
2013-06-14 00:08:00,62.2,50.3,29.85,NNW,335,9.1,13.2,65,0.00,,CLR,0.00,VWS V14.00,2013-06-14 04:08:00,
2013-06-14 00:13:00,62.4,50.0,29.85,NW,317,14.5,15.8,64,0.00,,CLR,0.00,VWS V14.00,2013-06-14 04:13:00,
2013-06-14 00:18:00,62.2,50.3,29.85,NNW,334,11.1,13.7,65,0.00,,CLR,0.00,VWS V14.00,2013-06-14 04:18:00,
2013-06-14 00:23:00,61.8,50.3,29.85,NW,320,14.0,15.3,66,0.00,,CLR,0.00,VWS V14.00,2013-06-14 04:23:00,
2013-06-14 00:28:00,61.8,50.8,29.85,WNW,284,13.5,18.0,67,0.00,,CLR,0.00,VWS V14.00,2013-06-14 04:28:00,
2013-06-14 00:33:00,62.0,50.5,29.85,NW,326,9.1,10.5,66,0.00,,CLR,0.00,VWS V14.00,2013-06-14 04:33:00,
2013-06-14 00:38:00,62.2,50.3,29.85,NNW,337,3.9,9.7,65,0.00,,CLR,0.00,VWS V14.00,2013-06-14 04:38:00,
2013-06-14 00:43:00,61.4,50.4,29.85,WNW,290,5.4,7.0,67,0.00,,CLR,0.00,VWS V14.00,2013-06-14 04:43:00,
2013-06-14 00:49:00,61.8,50.3,29.85,NNW,346,12.1,15.3,66,0.00,,CLR,0.00,VWS V14.00,2013-06-14 04:49:00,
2013-06-14 00:54:00,61.4,50.4,29.85,NW,323,9.6,13.2,67,0.00,,CLR,0.00,VWS V14.00,2013-06-14 04:54:00,
2013-06-14 00:59:00,61.4,50.4,29.85,NNW,329,11.1,16.9,67,0.00,,CLR,0.00,VWS V14.00,2013-06-14 04:59:00,
2013-06-14 01:04:00,61.2,50.2,29.85,North,353,3.9,7.5,67,0.00,,CLR,0.00,VWS V14.00,2013-06-14 05:04:00,
2013-06-14 01:09:00,61.2,50.2,29.85,North,353,11.1,20.4,67,0.00,,CLR,0.00,VWS V14.00,2013-06-14 05:09:00,
2013-06-14 01:14:00,61.2,49.8,29.85,NW,321,14.0,15.3,66,0.00,,CLR,0.00,VWS V14.00,2013-06-14 05:14:00,
2013-06-14 01:19:00,60.9,49.9,29.85,NNW,332,10.6,12.1,67,0.00,,CLR,0.00,VWS V14.00,2013-06-14 05:19:00,
2013-06-14 01:24:00,61.1,49.6,29.85,NW,314,14.5,22.0,66,0.00,,CLR,0.00,VWS V14.00,2013-06-14 05:24:00,
2013-06-14 01:29:00,61.2,49.8,29.85,NNW,340,16.5,18.0,66,0.00,,CLR,0.00,VWS V14.00,2013-06-14 05:29:00,
2013-06-14 01:34:00,61.1,50.0,29.85,NW,322,6.4,9.9,67,0.00,,CLR,0.00,VWS V14.00,2013-06-14 05:34:00,
2013-06-14 01:39:00,60.9,49.9,29.85,NNW,330,11.1,15.8,67,0.00,,CLR,0.00,VWS V14.00,2013-06-14 05:39:00,
2013-06-14 01:45:00,60.5,49.5,29.85,NNW,342,8.4,10.5,67,0.00,,CLR,0.00,VWS V14.00,2013-06-14 05:45:00,
2013-06-14 01:50:00,60.5,49.5,29.85,NW,320,9.1,13.7,67,0.00,,CLR,0.00,VWS V14.00,2013-06-14 05:50:00,
2013-06-14 01:55:00,60.5,49.5,29.85,NNW,331,11.1,13.2,67,0.00,,CLR,0.00,VWS V14.00,2013-06-14 05:55:00,
2013-06-14 02:00:00,60.5,49.5,29.85,NW,323,9.6,13.2,67,0.00,,CLR,0.00,VWS V14.00,2013-06-14 06:00:00,
2013-06-14 02:05:00,60.1,49.6,29.85,NNW,336,11.6,12.6,68,0.00,,FEW050,0.00,VWS V14.00,2013-06-14 06:05:00,
2013-06-14 02:10:00,60.1,49.6,29.85,NNW,335,11.1,14.2,68,0.00,,FEW050,0.00,VWS V14.00,2013-06-14 06:10:00,
2013-06-14 02:15:00,60.1,49.6,29.85,NNW,327,9.1,9.9,68,0.00,,FEW050,0.00,VWS V14.00,2013-06-14 06:15:00,
2013-06-14 02:20:00,60.1,49.6,29.85,NW,309,11.1,12.1,68,0.00,,FEW050,0.00,VWS V14.00,2013-06-14 06:20:00,
2013-06-14 02:25:00,60.0,49.4,29.85,North,353,4.4,7.5,68,0.00,,FEW050,0.00,VWS V14.00,2013-06-14 06:25:00,
2013-06-14 02:30:00,59.8,49.6,29.85,NW,325,13.5,14.8,69,0.00,,FEW050,0.00,VWS V14.00,2013-06-14 06:30:00,
2013-06-14 02:36:00,60.0,49.4,29.85,NNW,342,8.4,12.6,68,0.00,,FEW050,0.00,VWS V14.00,2013-06-14 06:36:00,
2013-06-14 02:41:00,60.1,49.6,29.85,NNW,345,5.4,10.5,68,0.00,,FEW050,0.00,VWS V14.00,2013-06-14 06:41:00,
2013-06-14 02:46:00,60.0,49.4,29.85,WNW,298,5.9,7.5,68,0.00,,FEW050,0.00,VWS V14.00,2013-06-14 06:46:00,
2013-06-14 02:51:00,60.0,49.8,29.85,NNW,331,8.4,10.5,69,0.00,,FEW050,0.00,VWS V14.00,2013-06-14 06:51:00,
2013-06-14 02:56:00,59.8,49.6,29.85,WNW,284,3.4,15.3,69,0.00,,FEW050,0.00,VWS V14.00,2013-06-14 06:56:00,
2013-06-14 03:01:00,60.0,49.8,29.85,WNW,291,9.6,10.5,69,0.00,,FEW050,0.00,VWS V14.00,2013-06-14 07:01:00,
2013-06-14 03:06:00,59.6,49.4,29.85,NW,311,3.9,5.9,69,0.00,,CLR,0.00,VWS V14.00,2013-06-14 07:06:00,
2013-06-14 03:11:00,59.6,49.8,29.85,North,11,2.5,4.8,70,0.00,,CLR,0.00,VWS V14.00,2013-06-14 07:11:00,
2013-06-14 03:16:00,59.6,49.8,29.88,North,353,0.0,2.7,70,0.00,,CLR,0.00,VWS V14.00,2013-06-14 07:16:00,
2013-06-14 03:21:00,59.4,49.6,29.88,NNW,331,2.5,3.8,70,0.00,,CLR,0.00,VWS V14.00,2013-06-14 07:21:00,
2013-06-14 03:26:00,59.0,50.0,29.88,ESE,116,0.0,4.3,72,0.00,,CLR,0.00,VWS V14.00,2013-06-14 07:26:00,
2013-06-14 03:32:00,58.8,50.2,29.88,NNW,336,2.5,2.7,73,0.00,,CLR,0.00,VWS V14.00,2013-06-14 07:32:00,
2013-06-14 03:37:00,58.8,50.2,29.88,NW,324,3.0,3.2,73,0.00,,CLR,0.00,VWS V14.00,2013-06-14 07:37:00,
2013-06-14 03:42:00,58.7,50.0,29.88,ESE,114,0.0,0.0,73,0.00,,CLR,0.00,VWS V14.00,2013-06-14 07:42:00,
2013-06-14 03:47:00,58.7,50.0,29.88,ESE,117,0.0,2.7,73,0.00,,CLR,0.00,VWS V14.00,2013-06-14 07:47:00,
2013-06-14 03:52:00,58.7,50.4,29.88,SSW,197,0.0,0.0,74,0.00,,CLR,0.00,VWS V14.00,2013-06-14 07:52:00,
2013-06-14 03:57:00,58.3,50.0,29.88,WNW,290,2.5,5.9,74,0.00,,CLR,0.00,VWS V14.00,2013-06-14 07:57:00,
2013-06-14 04:02:00,58.5,50.2,29.88,SSW,192,3.0,3.2,74,0.00,,CLR,0.00,VWS V14.00,2013-06-14 08:02:00,
2013-06-14 04:07:00,58.3,50.4,29.88,WSW,240,2.5,3.2,75,0.00,,CLR,0.00,VWS V14.00,2013-06-14 08:07:00,
2013-06-14 04:12:00,58.3,50.8,29.88,East,90,3.0,3.8,76,0.00,,CLR,0.00,VWS V14.00,2013-06-14 08:12:00,
2013-06-14 04:18:00,58.3,50.8,29.88,East,90,3.0,3.2,76,0.00,,CLR,0.00,VWS V14.00,2013-06-14 08:18:00,
2013-06-14 04:23:00,58.3,50.8,29.88,East,90,0.0,0.0,76,0.00,,CLR,0.00,VWS V14.00,2013-06-14 08:23:00,
2013-06-14 04:28:00,58.5,50.9,29.88,SE,138,3.0,4.3,76,0.00,,CLR,0.00,VWS V14.00,2013-06-14 08:28:00,
2013-06-14 04:33:00,58.5,50.9,29.88,SSE,152,3.4,4.8,76,0.00,,CLR,0.00,VWS V14.00,2013-06-14 08:33:00,
2013-06-14 04:38:00,58.5,50.9,29.88,SE,140,3.4,4.8,76,0.00,,CLR,0.00,VWS V14.00,2013-06-14 08:38:00,
2013-06-14 04:43:00,58.5,50.9,29.88,SSE,161,3.0,3.2,76,0.00,,CLR,0.00,VWS V14.00,2013-06-14 08:43:00,
2013-06-14 04:48:00,58.7,51.1,29.85,ESE,113,0.0,0.0,76,0.00,,CLR,0.00,VWS V14.00,2013-06-14 08:48:00,
2013-06-14 04:53:00,58.5,50.9,29.85,ESE,118,3.0,3.8,76,0.00,,CLR,0.00,VWS V14.00,2013-06-14 08:53:00,
2013-06-14 04:58:00,58.5,51.3,29.85,SE,134,3.0,3.2,77,0.00,,CLR,0.00,VWS V14.00,2013-06-14 08:58:00,
2013-06-14 05:03:00,58.5,51.7,29.88,SSE,152,3.9,4.8,78,0.00,,CLR,0.00,VWS V14.00,2013-06-14 09:03:00,
2013-06-14 05:09:00,58.5,51.7,29.88,SE,146,3.0,3.8,78,0.00,,CLR,0.00,VWS V14.00,2013-06-14 09:09:00,
2013-06-14 05:14:00,58.7,51.5,29.88,ESE,108,3.0,4.3,77,0.00,,CLR,0.00,VWS V14.00,2013-06-14 09:14:00,
2013-06-14 05:19:00,58.7,51.5,29.85,ESE,114,0.0,0.0,77,0.00,,CLR,0.00,VWS V14.00,2013-06-14 09:19:00,
2013-06-14 05:24:00,58.5,52.3,29.85,SE,127,3.4,4.3,80,0.00,,CLR,0.00,VWS V14.00,2013-06-14 09:24:00,
2013-06-14 05:29:00,58.7,52.8,29.85,SE,142,0.0,2.7,81,0.00,,CLR,0.00,VWS V14.00,2013-06-14 09:29:00,
2013-06-14 05:34:00,58.5,52.7,29.88,East,95,2.5,2.7,81,0.00,,CLR,0.00,VWS V14.00,2013-06-14 09:34:00,
2013-06-14 05:39:00,58.5,52.7,29.88,East,95,0.0,2.7,81,0.00,,CLR,0.00,VWS V14.00,2013-06-14 09:39:00,
2013-06-14 05:44:00,58.5,53.0,29.88,East,95,0.0,2.7,82,0.00,,CLR,0.00,VWS V14.00,2013-06-14 09:44:00,
2013-06-14 05:49:00,58.3,52.8,29.88,ESE,102,0.0,0.0,82,0.00,,CLR,0.00,VWS V14.00,2013-06-14 09:49:00,
2013-06-14 05:54:00,58.3,52.8,29.88,SSW,207,0.0,0.0,82,0.00,,CLR,0.00,VWS V14.00,2013-06-14 09:54:00,
2013-06-14 05:59:00,58.5,53.3,29.88,SSW,207,0.0,0.0,83,0.00,,CLR,0.00,VWS V14.00,2013-06-14 09:59:00,
2013-06-14 06:05:00,58.5,53.0,29.88,SSE,156,3.0,3.8,82,0.00,,FEW018,0.00,VWS V14.00,2013-06-14 10:05:00,
2013-06-14 06:10:00,58.5,53.0,29.88,SSE,156,0.0,0.0,82,0.00,,FEW018,0.00,VWS V14.00,2013-06-14 10:10:00,
2013-06-14 06:15:00,58.5,53.0,29.88,SSE,156,0.0,2.7,82,0.00,,FEW018,0.00,VWS V14.00,2013-06-14 10:15:00,
2013-06-14 06:20:00,58.5,53.0,29.88,ENE,70,0.0,3.8,82,0.00,,FEW018,0.00,VWS V14.00,2013-06-14 10:20:00,
2013-06-14 06:25:00,58.7,52.8,29.88,ENE,77,2.5,4.3,81,0.00,,FEW018,0.00,VWS V14.00,2013-06-14 10:25:00,
2013-06-14 06:30:00,58.7,53.2,29.88,ENE,77,0.0,0.0,82,0.00,,FEW018,0.00,VWS V14.00,2013-06-14 10:30:00,
2013-06-14 06:35:00,58.7,53.2,29.88,ENE,57,3.9,4.8,82,0.00,,BKN016,0.00,VWS V14.00,2013-06-14 10:35:00,
2013-06-14 06:40:00,58.8,52.3,29.88,ENE,74,3.4,3.8,79,0.00,,BKN016,0.00,VWS V14.00,2013-06-14 10:40:00,
2013-06-14 06:45:00,58.8,52.7,29.88,ENE,70,0.0,2.7,80,0.00,,BKN016,0.00,VWS V14.00,2013-06-14 10:45:00,
2013-06-14 06:50:00,59.0,52.5,29.91,NW,308,5.4,7.0,79,0.00,,BKN016,0.00,VWS V14.00,2013-06-14 10:50:00,
2013-06-14 06:56:00,59.2,51.7,29.91,NW,319,0.0,0.0,76,0.00,,BKN016,0.00,VWS V14.00,2013-06-14 10:56:00,
2013-06-14 07:01:00,59.2,51.7,29.91,NNE,23,3.0,3.2,76,0.00,,BKN016,0.00,VWS V14.00,2013-06-14 11:01:00,
2013-06-14 07:06:00,59.2,52.0,29.91,NNE,23,0.0,0.0,77,0.00,,BKN016,0.00,VWS V14.00,2013-06-14 11:06:00,
2013-06-14 07:11:00,59.2,52.4,29.91,NW,316,0.0,0.0,78,0.00,,BKN016,0.00,VWS V14.00,2013-06-14 11:11:00,
2013-06-14 07:16:00,59.2,52.7,29.91,NW,319,3.0,3.2,79,0.00,,OVC014,0.00,VWS V14.00,2013-06-14 11:16:00,
2013-06-14 07:21:00,59.6,50.9,29.91,NW,326,4.4,6.4,73,0.00,,OVC014,0.00,VWS V14.00,2013-06-14 11:21:00,
2013-06-14 07:26:00,59.8,50.7,29.91,North,353,2.5,4.3,72,0.00,,OVC014,0.00,VWS V14.00,2013-06-14 11:26:00,
2013-06-14 07:31:00,59.6,52.4,29.91,South,188,3.0,4.8,77,0.00,,OVC014,0.00,VWS V14.00,2013-06-14 11:31:00,
2013-06-14 07:36:00,59.4,51.8,29.91,NE,46,0.0,0.0,76,0.00,,OVC014,0.00,VWS V14.00,2013-06-14 11:36:00,
2013-06-14 07:41:00,59.4,51.8,29.91,NE,46,0.0,0.0,76,0.00,,OVC014,0.00,VWS V14.00,2013-06-14 11:41:00,
2013-06-14 07:47:00,59.4,51.5,29.91,NNW,330,3.4,3.8,75,0.00,,OVC014,0.00,VWS V14.00,2013-06-14 11:47:00,
2013-06-14 07:52:00,59.6,52.4,29.91,NW,325,3.4,4.3,77,0.00,,OVC014,0.00,VWS V14.00,2013-06-14 11:52:00,
2013-06-14 07:57:00,59.8,51.8,29.91,North,357,2.5,3.8,75,0.00,,OVC014,0.00,VWS V14.00,2013-06-14 11:57:00,
2013-06-14 08:02:00,60.3,51.3,29.94,NNW,339,4.9,6.4,72,0.00,,OVC021,0.00,VWS V14.00,2013-06-14 12:02:00,
2013-06-14 08:07:00,60.5,51.1,29.94,West,272,3.0,4.8,71,0.00,,OVC021,0.00,VWS V14.00,2013-06-14 12:07:00,
2013-06-14 08:12:00,60.7,50.9,29.94,NNW,340,2.5,7.0,70,0.00,,OVC021,0.00,VWS V14.00,2013-06-14 12:12:00,
2013-06-14 08:17:00,60.7,50.5,29.94,WNW,296,5.9,7.0,69,0.00,,OVC021,0.00,VWS V14.00,2013-06-14 12:17:00,
2013-06-14 08:22:00,60.7,51.2,29.94,North,349,0.0,3.2,71,0.00,,OVC021,0.00,VWS V14.00,2013-06-14 12:22:00,
2013-06-14 08:27:00,60.5,51.5,29.94,North,349,0.0,0.0,72,0.00,,OVC021,0.00,VWS V14.00,2013-06-14 12:27:00,
2013-06-14 08:32:00,60.5,51.8,29.94,WNW,291,3.4,3.8,73,0.00,,OVC021,0.00,VWS V14.00,2013-06-14 12:32:00,
2013-06-14 08:38:00,61.1,52.4,29.94,WNW,288,3.0,3.8,73,0.00,,OVC021,0.00,VWS V14.00,2013-06-14 12:38:00,
2013-06-14 08:42:00,61.4,51.6,29.94,NW,305,5.4,7.5,70,0.00,,OVC021,0.00,VWS V14.00,2013-06-14 12:42:00,
2013-06-14 08:48:00,61.4,51.6,29.94,WNW,299,5.9,7.0,70,0.00,,OVC021,0.00,VWS V14.00,2013-06-14 12:48:00,
2013-06-14 08:53:00,61.6,51.4,29.94,NNW,340,7.4,9.9,69,0.00,,OVC021,0.00,VWS V14.00,2013-06-14 12:53:00,
2013-06-14 08:58:00,61.6,51.4,29.94,WNW,292,0.0,4.3,69,0.00,,OVC021,0.00,VWS V14.00,2013-06-14 12:58:00,
2013-06-14 09:03:00,61.8,51.5,29.94,NW,323,9.6,10.5,69,0.00,,OVC010,0.00,VWS V14.00,2013-06-14 13:03:00,
2013-06-14 09:08:00,62.2,51.9,29.94,NW,325,6.9,7.5,69,0.00,,OVC010,0.00,VWS V14.00,2013-06-14 13:08:00,
2013-06-14 09:13:00,62.4,51.7,29.94,North,353,5.9,7.0,68,0.00,,OVC010,0.00,VWS V14.00,2013-06-14 13:13:00,
2013-06-14 09:18:00,62.5,51.5,29.97,NW,311,3.4,3.8,67,0.00,,OVC010,0.00,VWS V14.00,2013-06-14 13:18:00,
2013-06-14 09:23:00,62.7,51.2,29.97,WNW,291,5.9,9.7,66,0.00,,OVC010,0.00,VWS V14.00,2013-06-14 13:23:00,
2013-06-14 09:28:00,62.9,51.0,29.97,NNW,329,5.9,9.1,65,0.00,,OVC010,0.00,VWS V14.00,2013-06-14 13:28:00,
2013-06-14 09:33:00,62.7,51.2,29.97,WNW,292,6.9,8.6,66,0.00,,OVC010,0.00,VWS V14.00,2013-06-14 13:33:00,
2013-06-14 09:38:00,62.5,51.9,29.97,North,353,3.9,7.0,68,0.00,,OVC010,0.00,VWS V14.00,2013-06-14 13:38:00,
2013-06-14 09:43:00,62.7,50.8,29.97,NW,304,6.4,7.0,65,0.00,,OVC010,0.00,VWS V14.00,2013-06-14 13:43:00,
2013-06-14 09:49:00,63.3,52.2,29.97,North,353,4.4,9.7,67,0.00,,OVC010,0.00,VWS V14.00,2013-06-14 13:49:00,
2013-06-14 09:54:00,63.7,52.1,29.97,NNW,331,11.1,12.1,66,0.00,,OVC010,0.00,VWS V14.00,2013-06-14 13:54:00,
2013-06-14 09:59:00,63.3,50.5,29.97,North,357,3.0,6.4,63,0.00,,OVC010,0.00,VWS V14.00,2013-06-14 13:59:00,
2013-06-14 10:04:00,63.7,50.8,29.97,NNW,329,6.9,9.7,63,0.00,,OVC012,0.00,VWS V14.00,2013-06-14 14:04:00,
2013-06-14 10:09:00,63.5,50.7,29.97,NW,304,5.9,7.0,63,0.00,,OVC012,0.00,VWS V14.00,2013-06-14 14:09:00,
2013-06-14 10:14:00,63.7,51.3,29.97,NNW,345,3.0,7.5,64,0.00,,OVC012,0.00,VWS V14.00,2013-06-14 14:14:00,
2013-06-14 10:19:00,63.8,51.9,29.97,NNE,22,0.0,4.8,65,0.00,,OVC012,0.00,VWS V14.00,2013-06-14 14:19:00,
2013-06-14 10:24:00,63.8,51.0,29.97,NNE,32,3.4,4.8,63,0.00,,OVC012,0.00,VWS V14.00,2013-06-14 14:24:00,
2013-06-14 10:29:00,64.0,51.2,29.97,NW,323,9.1,9.9,63,0.00,,OVC012,0.00,VWS V14.00,2013-06-14 14:29:00,
2013-06-14 10:34:00,64.4,51.1,29.97,NW,309,9.6,12.1,62,0.00,,OVC017,0.00,VWS V14.00,2013-06-14 14:34:00,
2013-06-14 10:40:00,64.2,50.5,29.97,NNW,330,8.9,13.2,61,0.00,,OVC017,0.00,VWS V14.00,2013-06-14 14:40:00,
2013-06-14 10:45:00,65.0,50.8,29.97,NNW,333,14.0,15.3,60,0.00,,OVC017,0.00,VWS V14.00,2013-06-14 14:45:00,
2013-06-14 10:50:00,64.6,50.0,29.97,NW,324,7.9,11.0,59,0.00,,OVC017,0.00,VWS V14.00,2013-06-14 14:50:00,
2013-06-14 10:55:00,64.2,50.1,29.97,NW,325,11.6,12.6,60,0.00,,OVC017,0.00,VWS V14.00,2013-06-14 14:55:00,
2013-06-14 11:00:00,64.8,49.7,29.97,NW,309,11.1,12.1,58,0.00,,OVC017,0.00,VWS V14.00,2013-06-14 15:00:00,
2013-06-14 11:05:00,64.8,51.0,30.00,NNW,344,3.9,7.0,61,0.00,,OVC026,0.00,VWS V14.00,2013-06-14 15:05:00,
2013-06-14 11:10:00,65.3,52.4,30.00,North,357,6.4,9.9,63,0.00,,OVC026,0.00,VWS V14.00,2013-06-14 15:10:00,
2013-06-14 11:15:00,66.4,52.6,30.00,NW,316,11.6,12.6,61,0.00,,OVC026,0.00,VWS V14.00,2013-06-14 15:15:00,
2013-06-14 11:20:00,66.6,52.8,30.00,NNW,327,5.9,7.5,61,0.00,,OVC026,0.00,VWS V14.00,2013-06-14 15:20:00,
2013-06-14 11:25:00,66.8,51.6,30.00,NNW,340,13.5,18.0,58,0.00,,OVC026,0.00,VWS V14.00,2013-06-14 15:25:00,
2013-06-14 11:30:00,65.3,48.8,30.00,NW,310,9.1,10.5,55,0.00,,OVC026,0.00,VWS V14.00,2013-06-14 15:30:00,
2013-06-14 11:36:00,66.3,50.1,30.00,NW,324,9.1,12.6,56,0.00,,OVC026,0.00,VWS V14.00,2013-06-14 15:36:00,
2013-06-14 11:40:00,65.9,49.8,30.00,NW,313,8.9,15.8,56,0.00,,OVC026,0.00,VWS V14.00,2013-06-14 15:40:00,
2013-06-14 11:46:00,65.7,49.6,30.00,North,353,6.9,12.1,56,0.00,,BKN035,0.00,VWS V14.00,2013-06-14 15:46:00,
2013-06-14 11:51:00,67.4,50.7,30.00,NNW,329,6.9,11.5,55,0.00,,BKN035,0.00,VWS V14.00,2013-06-14 15:51:00,
2013-06-14 11:56:00,67.0,49.8,30.00,NNW,331,9.1,12.6,54,0.00,,BKN035,0.00,VWS V14.00,2013-06-14 15:56:00,
2013-06-14 12:01:00,67.7,50.5,30.00,WNW,303,11.1,12.1,54,0.00,,BKN035,0.00,VWS V14.00,2013-06-14 16:01:00,
2013-06-14 12:06:00,67.6,50.3,30.00,NW,304,14.5,15.8,54,0.00,,BKN034,0.00,VWS V14.00,2013-06-14 16:06:00,
2013-06-14 12:11:00,69.0,50.2,30.00,NW,316,11.6,12.6,51,0.00,,BKN034,0.00,VWS V14.00,2013-06-14 16:11:00,
2013-06-14 12:16:00,68.1,49.3,30.00,NNW,335,14.0,16.4,51,0.00,,BKN034,0.00,VWS V14.00,2013-06-14 16:16:00,
2013-06-14 12:21:00,67.9,49.7,30.00,NW,321,11.6,12.6,52,0.00,,BKN034,0.00,VWS V14.00,2013-06-14 16:21:00,
2013-06-14 12:26:00,67.4,48.6,30.00,NW,323,9.1,14.8,51,0.00,,BKN034,0.00,VWS V14.00,2013-06-14 16:26:00,
2013-06-14 12:31:00,66.8,48.6,30.00,NNW,330,12.1,15.3,52,0.00,,BKN034,0.00,VWS V14.00,2013-06-14 16:31:00,
2013-06-14 12:37:00,67.6,51.3,30.00,NNW,336,14.5,15.8,56,0.00,,BKN034,0.00,VWS V14.00,2013-06-14 16:37:00,
2013-06-14 12:42:00,68.1,51.3,30.00,NW,324,13.5,15.8,55,0.00,,BKN034,0.00,VWS V14.00,2013-06-14 16:42:00,
2013-06-14 12:47:00,69.4,51.6,30.00,NW,315,11.1,13.7,53,0.00,,BKN034,0.00,VWS V14.00,2013-06-14 16:47:00,
2013-06-14 12:52:00,67.9,48.6,30.00,NW,321,14.5,15.8,50,0.00,,BKN034,0.00,VWS V14.00,2013-06-14 16:52:00,
2013-06-14 12:57:00,67.6,48.8,30.00,NW,311,9.1,12.1,51,0.00,,BKN034,0.00,VWS V14.00,2013-06-14 16:57:00,
2013-06-14 13:02:00,67.4,49.2,30.00,NW,324,18.5,20.1,52,0.00,,BKN034,0.00,VWS V14.00,2013-06-14 17:02:00,
2013-06-14 13:07:00,67.2,49.0,30.00,NW,324,15.0,16.4,52,0.00,,BKN050,0.00,VWS V14.00,2013-06-14 17:07:00,
2013-06-14 13:12:00,68.1,51.8,30.00,North,353,9.6,12.1,56,0.00,,BKN050,0.00,VWS V14.00,2013-06-14 17:12:00,
2013-06-14 13:17:00,69.8,52.9,30.00,North,353,12.1,15.3,55,0.00,,BKN050,0.00,VWS V14.00,2013-06-14 17:17:00,
2013-06-14 13:22:00,68.3,49.0,30.00,NW,304,11.6,16.9,50,0.00,,BKN050,0.00,VWS V14.00,2013-06-14 17:22:00,
2013-06-14 13:27:00,69.4,50.5,30.00,NW,314,11.6,12.6,51,0.00,,BKN050,0.00,VWS V14.00,2013-06-14 17:27:00,
2013-06-14 13:33:00,68.8,50.0,30.00,WNW,293,11.1,12.6,51,0.00,,BKN050,0.00,VWS V14.00,2013-06-14 17:33:00,
2013-06-14 13:38:00,68.1,49.3,30.00,NW,311,13.5,15.8,51,0.00,,BKN050,0.00,VWS V14.00,2013-06-14 17:38:00,
2013-06-14 13:43:00,67.9,48.6,30.00,WNW,297,11.6,15.3,50,0.00,,BKN050,0.00,VWS V14.00,2013-06-14 17:43:00,
2013-06-14 13:48:00,68.1,49.3,30.00,NW,324,11.6,12.6,51,0.00,,BKN050,0.00,VWS V14.00,2013-06-14 17:48:00,
2013-06-14 13:53:00,68.3,50.0,30.00,NW,315,11.1,12.1,52,0.00,,BKN050,0.00,VWS V14.00,2013-06-14 17:53:00,
2013-06-14 13:58:00,68.3,50.5,30.00,NW,320,9.1,15.3,53,0.00,,BKN050,0.00,VWS V14.00,2013-06-14 17:58:00,
2013-06-14 14:03:00,68.5,50.2,30.00,NNW,345,11.1,12.6,52,0.00,,OVC055,0.00,VWS V14.00,2013-06-14 18:03:00,
2013-06-14 14:08:00,69.4,48.9,30.00,NNW,339,9.1,15.3,48,0.00,,OVC055,0.00,VWS V14.00,2013-06-14 18:08:00,
2013-06-14 14:13:00,68.8,51.5,30.00,WNW,292,9.6,12.6,54,0.00,,OVC055,0.00,VWS V14.00,2013-06-14 18:13:00,
2013-06-14 14:18:00,69.6,50.2,30.00,NW,313,9.1,15.8,50,0.00,,OVC055,0.00,VWS V14.00,2013-06-14 18:18:00,
2013-06-14 14:23:00,69.6,49.6,30.00,NNW,327,9.1,9.9,49,0.00,,OVC055,0.00,VWS V14.00,2013-06-14 18:23:00,
2013-06-14 14:28:00,70.3,50.8,30.00,NNW,331,6.4,13.2,50,0.00,,OVC055,0.00,VWS V14.00,2013-06-14 18:28:00,
2013-06-14 14:34:00,70.9,51.9,30.00,NNW,332,9.1,9.9,51,0.00,,OVC055,0.00,VWS V14.00,2013-06-14 18:34:00,
2013-06-14 14:39:00,71.1,50.4,30.00,NW,304,11.1,12.1,48,0.00,,OVC055,0.00,VWS V14.00,2013-06-14 18:39:00,
2013-06-14 14:44:00,71.8,51.7,30.00,NW,304,11.1,12.6,49,0.00,,OVC055,0.00,VWS V14.00,2013-06-14 18:44:00,
2013-06-14 14:49:00,72.0,51.3,30.00,NNW,327,12.1,14.8,48,0.00,,OVC055,0.00,VWS V14.00,2013-06-14 18:49:00,
2013-06-14 14:54:00,72.6,52.9,30.00,WNW,283,3.9,7.0,50,0.00,,OVC055,0.00,VWS V14.00,2013-06-14 18:54:00,
2013-06-14 14:59:00,70.5,49.3,30.00,NNW,343,8.9,9.9,47,0.01,,OVC055,0.01,VWS V14.00,2013-06-14 18:59:00,
2013-06-14 15:04:00,70.5,52.1,30.00,NW,323,8.4,9.1,52,0.01,,BKN070,0.01,VWS V14.00,2013-06-14 19:04:00,
2013-06-14 15:09:00,71.3,50.6,30.00,NNW,331,11.1,15.3,48,0.01,,BKN070,0.01,VWS V14.00,2013-06-14 19:09:00,
2013-06-14 15:14:00,71.8,50.0,30.00,NNW,331,11.1,20.1,46,0.01,,BKN070,0.01,VWS V14.00,2013-06-14 19:14:00,
2013-06-14 15:19:00,71.3,51.1,30.00,NNW,333,12.1,15.3,49,0.01,,BKN070,0.01,VWS V14.00,2013-06-14 19:19:00,
2013-06-14 15:24:00,72.2,50.9,30.00,NW,325,10.1,13.7,47,0.01,,BKN070,0.01,VWS V14.00,2013-06-14 19:24:00,
2013-06-14 15:29:00,73.1,52.3,30.00,WNW,292,8.9,15.3,48,0.01,,BKN070,0.01,VWS V14.00,2013-06-14 19:29:00,
2013-06-14 15:34:00,71.4,49.6,30.00,WNW,301,17.0,19.6,46,0.01,,BKN070,0.01,VWS V14.00,2013-06-14 19:34:00,
2013-06-14 15:39:00,71.6,50.9,30.00,NW,321,11.6,16.9,48,0.01,,BKN070,0.01,VWS V14.00,2013-06-14 19:39:00,
2013-06-14 15:45:00,71.3,48.8,30.00,NW,316,14.0,15.3,45,0.01,,BKN070,0.01,VWS V14.00,2013-06-14 19:45:00,
2013-06-14 15:50:00,72.4,50.5,30.00,NW,311,9.1,14.8,46,0.01,,BKN070,0.01,VWS V14.00,2013-06-14 19:50:00,
2013-06-14 15:55:00,72.2,49.7,30.00,NW,309,12.1,13.2,45,0.01,,BKN070,0.01,VWS V14.00,2013-06-14 19:55:00,
2013-06-14 16:00:00,72.0,50.7,30.00,NNW,339,9.1,9.9,47,0.00,,BKN070,0.01,VWS V14.00,2013-06-14 20:00:00,
2013-06-14 16:05:00,72.6,51.2,30.00,WNW,299,14.0,15.3,47,0.00,,OVC070,0.01,VWS V14.00,2013-06-14 20:05:00,
2013-06-14 16:10:00,72.8,50.2,30.00,NNW,332,14.0,16.9,45,0.00,,OVC070,0.01,VWS V14.00,2013-06-14 20:10:00,
2013-06-14 16:15:00,73.3,50.7,30.00,NW,319,13.5,14.8,45,0.00,,OVC070,0.01,VWS V14.00,2013-06-14 20:15:00,
2013-06-14 16:20:00,73.5,50.3,30.00,NNW,339,12.1,13.2,44,0.00,,OVC070,0.01,VWS V14.00,2013-06-14 20:20:00,
2013-06-14 16:25:00,73.1,49.9,30.00,North,3,8.4,12.1,44,0.00,,OVC070,0.01,VWS V14.00,2013-06-14 20:25:00,
2013-06-14 16:30:00,71.3,48.8,30.00,NW,322,14.5,18.0,45,0.00,,OVC070,0.01,VWS V14.00,2013-06-14 20:30:00,
2013-06-14 16:35:00,70.5,48.8,30.00,NNW,335,14.0,18.0,46,0.00,,OVC070,0.01,VWS V14.00,2013-06-14 20:35:00,
2013-06-14 16:40:00,69.8,48.7,30.00,WNW,302,11.6,15.3,47,0.00,,OVC070,0.01,VWS V14.00,2013-06-14 20:40:00,
2013-06-14 16:45:00,69.4,48.3,30.00,NNW,346,13.0,18.0,47,0.00,,OVC070,0.01,VWS V14.00,2013-06-14 20:45:00,
2013-06-14 16:51:00,69.2,49.3,30.00,NW,319,13.5,14.8,49,0.00,,OVC070,0.01,VWS V14.00,2013-06-14 20:51:00,
2013-06-14 16:56:00,70.2,50.7,30.00,NW,304,11.6,12.6,50,0.00,,OVC070,0.01,VWS V14.00,2013-06-14 20:56:00,
2013-06-14 17:01:00,70.9,50.2,30.00,WNW,297,8.4,9.1,48,0.00,,OVC070,0.01,VWS V14.00,2013-06-14 21:01:00,
2013-06-14 17:06:00,71.3,50.0,30.00,NW,325,7.4,9.7,47,0.00,,BKN075,0.01,VWS V14.00,2013-06-14 21:06:00,
2013-06-14 17:11:00,70.7,50.6,30.00,North,357,9.1,9.9,49,0.00,,BKN075,0.01,VWS V14.00,2013-06-14 21:11:00,
2013-06-14 17:16:00,71.3,50.6,30.00,NNW,345,12.1,15.3,48,0.00,,BKN075,0.01,VWS V14.00,2013-06-14 21:16:00,
2013-06-14 17:21:00,71.3,50.0,30.00,NW,316,12.1,13.2,47,0.00,,BKN075,0.01,VWS V14.00,2013-06-14 21:21:00,
2013-06-14 17:26:00,71.8,52.2,30.00,NNW,328,9.6,15.3,50,0.00,,BKN075,0.01,VWS V14.00,2013-06-14 21:26:00,
2013-06-14 17:31:00,71.6,50.4,30.00,NW,310,16.0,17.4,47,0.00,,BKN075,0.01,VWS V14.00,2013-06-14 21:31:00,
2013-06-14 17:37:00,71.8,50.0,30.00,NW,322,9.6,12.1,46,0.00,,BKN075,0.01,VWS V14.00,2013-06-14 21:37:00,
2013-06-14 17:42:00,71.8,50.5,30.00,NNW,331,11.6,12.6,47,0.00,,BKN075,0.01,VWS V14.00,2013-06-14 21:42:00,
2013-06-14 17:47:00,71.8,51.1,30.00,NNW,329,9.1,9.9,48,0.00,,BKN075,0.01,VWS V14.00,2013-06-14 21:47:00,
2013-06-14 17:52:00,71.8,51.1,30.00,North,350,8.9,12.1,48,0.00,,BKN075,0.01,VWS V14.00,2013-06-14 21:52:00,
2013-06-14 17:57:00,71.6,51.5,30.00,North,0,6.4,7.0,49,0.00,,BKN075,0.01,VWS V14.00,2013-06-14 21:57:00,
2013-06-14 18:02:00,72.0,51.8,30.00,NNW,341,5.9,12.6,49,0.00,,FEW039,0.01,VWS V14.00,2013-06-14 22:02:00,
2013-06-14 18:07:00,71.4,50.8,30.00,NNW,328,6.9,11.0,48,0.00,,FEW039,0.01,VWS V14.00,2013-06-14 22:07:00,
2013-06-14 18:12:00,70.5,50.5,30.00,NW,306,4.4,7.5,49,0.00,,FEW039,0.01,VWS V14.00,2013-06-14 22:12:00,
2013-06-14 18:17:00,69.4,49.4,30.00,NW,324,4.4,9.9,49,0.00,,FEW039,0.01,VWS V14.00,2013-06-14 22:17:00,
2013-06-14 18:22:00,68.7,49.8,30.00,NNW,338,6.4,15.8,51,0.00,,FEW039,0.01,VWS V14.00,2013-06-14 22:22:00,
2013-06-14 18:27:00,68.7,49.8,30.00,NNW,332,11.6,12.6,51,0.00,,FEW039,0.01,VWS V14.00,2013-06-14 22:27:00,
2013-06-14 18:33:00,68.5,50.2,30.00,NNW,327,11.1,13.7,52,0.00,,FEW039,0.01,VWS V14.00,2013-06-14 22:33:00,
2013-06-14 18:38:00,69.0,51.2,30.00,North,353,9.6,13.2,53,0.00,,FEW039,0.01,VWS V14.00,2013-06-14 22:38:00,
2013-06-14 18:43:00,68.5,50.7,30.00,NNW,332,6.4,9.1,53,0.00,,FEW039,0.01,VWS V14.00,2013-06-14 22:43:00,
2013-06-14 18:48:00,69.2,51.9,30.03,NNW,327,9.1,9.9,54,0.00,,FEW039,0.01,VWS V14.00,2013-06-14 22:48:00,
2013-06-14 18:53:00,69.6,51.7,30.03,NNW,342,6.9,10.5,53,0.00,,FEW039,0.01,VWS V14.00,2013-06-14 22:53:00,
2013-06-14 18:58:00,69.4,52.1,30.03,NNW,340,9.1,9.9,54,0.00,,FEW039,0.01,VWS V14.00,2013-06-14 22:58:00,
2013-06-14 19:03:00,69.4,52.6,30.03,North,353,4.9,10.5,55,0.00,,CLR,0.01,VWS V14.00,2013-06-14 23:03:00,
2013-06-14 19:08:00,69.2,52.4,30.03,NW,316,11.6,13.2,55,0.00,,CLR,0.01,VWS V14.00,2013-06-14 23:08:00,
2013-06-14 19:13:00,69.4,52.6,30.03,NNW,333,8.9,10.5,55,0.00,,CLR,0.01,VWS V14.00,2013-06-14 23:13:00,
2013-06-14 19:18:00,69.2,51.9,30.03,North,353,6.9,9.9,54,0.00,,CLR,0.01,VWS V14.00,2013-06-14 23:18:00,
2013-06-14 19:23:00,68.7,51.9,30.03,NNW,346,5.9,9.7,55,0.00,,CLR,0.01,VWS V14.00,2013-06-14 23:23:00,
2013-06-14 19:29:00,67.7,51.0,30.03,NNW,337,3.0,6.4,55,0.00,,CLR,0.01,VWS V14.00,2013-06-14 23:29:00,
2013-06-14 19:34:00,67.4,52.1,30.03,NW,324,4.4,4.8,58,0.00,,CLR,0.01,VWS V14.00,2013-06-14 23:34:00,
2013-06-14 19:39:00,67.4,52.1,30.03,NNW,339,4.4,4.8,58,0.00,,CLR,0.01,VWS V14.00,2013-06-14 23:39:00,
2013-06-14 19:44:00,67.4,52.6,30.03,NNW,330,0.0,0.0,59,0.00,,CLR,0.01,VWS V14.00,2013-06-14 23:44:00,
2013-06-14 19:49:00,67.2,52.4,30.03,NW,326,3.4,3.8,59,0.00,,CLR,0.01,VWS V14.00,2013-06-14 23:49:00,
2013-06-14 19:54:00,67.0,52.2,30.03,WNW,303,2.5,2.7,59,0.00,,CLR,0.01,VWS V14.00,2013-06-14 23:54:00,
2013-06-14 19:59:00,66.8,53.4,30.03,SSW,203,0.0,0.0,62,0.00,,CLR,0.01,VWS V14.00,2013-06-14 23:59:00,
2013-06-14 20:04:00,66.8,53.4,30.03,NNW,331,0.0,2.7,62,0.00,,FEW038,0.01,VWS V14.00,2013-06-15 00:04:00,
2013-06-14 20:09:00,66.6,54.1,30.03,NE,37,2.5,3.2,64,0.00,,FEW038,0.01,VWS V14.00,2013-06-15 00:09:00,
2013-06-14 20:14:00,66.4,53.5,30.03,East,88,2.5,2.7,63,0.00,,FEW038,0.01,VWS V14.00,2013-06-15 00:14:00,
2013-06-14 20:19:00,66.1,53.6,30.03,NNW,333,4.4,6.4,64,0.00,,FEW038,0.01,VWS V14.00,2013-06-15 00:19:00,
2013-06-14 20:25:00,66.3,53.7,30.03,NNW,343,4.4,4.8,64,0.00,,FEW038,0.01,VWS V14.00,2013-06-15 00:25:00,
2013-06-14 20:30:00,66.1,53.6,30.03,North,353,0.0,0.0,64,0.00,,FEW038,0.01,VWS V14.00,2013-06-15 00:30:00,
2013-06-14 20:35:00,65.7,53.2,30.06,ESE,115,3.0,3.8,64,0.00,,FEW038,0.01,VWS V14.00,2013-06-15 00:35:00,
2013-06-14 20:40:00,65.7,53.2,30.06,ESE,113,3.0,3.2,64,0.00,,FEW038,0.01,VWS V14.00,2013-06-15 00:40:00,
2013-06-14 20:45:00,65.3,53.3,30.06,East,95,0.0,0.0,65,0.00,,FEW038,0.01,VWS V14.00,2013-06-15 00:45:00,
2013-06-14 20:50:00,65.2,52.7,30.06,ENE,72,2.5,2.7,64,0.00,,FEW038,0.01,VWS V14.00,2013-06-15 00:50:00,
2013-06-14 20:55:00,65.2,52.7,30.06,ENE,61,0.0,0.0,64,0.00,,FEW038,0.01,VWS V14.00,2013-06-15 00:55:00,
2013-06-14 21:00:00,65.0,52.9,30.06,ESE,109,0.0,0.0,65,0.00,,FEW038,0.01,VWS V14.00,2013-06-15 01:00:00,
2013-06-14 21:05:00,64.8,52.3,30.06,East,92,0.0,2.7,64,0.00,,CLR,0.01,VWS V14.00,2013-06-15 01:05:00,
2013-06-14 21:11:00,64.6,52.6,30.06,East,92,0.0,0.0,65,0.00,,CLR,0.01,VWS V14.00,2013-06-15 01:11:00,
2013-06-14 21:16:00,64.4,52.8,30.06,East,92,0.0,0.0,66,0.00,,CLR,0.01,VWS V14.00,2013-06-15 01:16:00,
2013-06-14 21:21:00,64.2,52.6,30.06,East,92,0.0,2.7,66,0.00,,CLR,0.01,VWS V14.00,2013-06-15 01:21:00,
2013-06-14 21:26:00,64.0,52.0,30.06,East,92,2.5,2.7,65,0.00,,CLR,0.01,VWS V14.00,2013-06-15 01:26:00,
2013-06-14 21:31:00,63.8,51.9,30.06,East,92,0.0,0.0,65,0.00,,CLR,0.01,VWS V14.00,2013-06-15 01:31:00,
2013-06-14 21:36:00,63.8,52.3,30.06,East,92,0.0,0.0,66,0.00,,CLR,0.01,VWS V14.00,2013-06-15 01:36:00,
2013-06-14 21:41:00,63.8,52.3,30.06,East,92,0.0,0.0,66,0.00,,CLR,0.01,VWS V14.00,2013-06-15 01:41:00,
2013-06-14 21:46:00,63.7,52.1,30.06,East,92,0.0,0.0,66,0.00,,CLR,0.01,VWS V14.00,2013-06-15 01:46:00,
2013-06-14 21:52:00,63.7,52.1,30.06,East,92,0.0,0.0,66,0.00,,CLR,0.01,VWS V14.00,2013-06-15 01:52:00,
2013-06-14 21:57:00,63.3,52.6,30.06,NNW,339,4.4,5.9,68,0.00,,CLR,0.01,VWS V14.00,2013-06-15 01:57:00,
2013-06-14 22:02:00,63.1,52.8,30.06,NNW,343,3.9,4.8,69,0.00,,CLR,0.01,VWS V14.00,2013-06-15 02:02:00,
2013-06-14 22:07:00,63.1,52.8,30.06,North,357,0.0,2.7,69,0.00,,CLR,0.01,VWS V14.00,2013-06-15 02:07:00,
2013-06-14 22:12:00,63.1,52.8,30.06,NW,304,0.0,0.0,69,0.00,,CLR,0.01,VWS V14.00,2013-06-15 02:12:00,
2013-06-14 22:17:00,62.9,53.0,30.06,NNE,19,0.0,0.0,70,0.00,,CLR,0.01,VWS V14.00,2013-06-15 02:17:00,
2013-06-14 22:22:00,62.5,52.6,30.06,SE,128,2.5,3.2,70,0.00,,CLR,0.01,VWS V14.00,2013-06-15 02:22:00,
2013-06-14 22:27:00,62.4,52.5,30.06,SE,128,0.0,3.2,70,0.00,,CLR,0.01,VWS V14.00,2013-06-15 02:27:00,
2013-06-14 22:32:00,61.6,51.8,30.06,East,93,3.9,7.0,70,0.00,,CLR,0.01,VWS V14.00,2013-06-15 02:32:00,
2013-06-14 22:38:00,61.6,52.5,30.06,East,93,0.0,2.7,72,0.00,,CLR,0.01,VWS V14.00,2013-06-15 02:38:00,
2013-06-14 22:43:00,61.4,52.7,30.06,East,84,0.0,2.7,73,0.00,,CLR,0.01,VWS V14.00,2013-06-15 02:43:00,
2013-06-14 22:48:00,61.2,52.5,30.09,ESE,114,5.4,5.9,73,0.00,,CLR,0.01,VWS V14.00,2013-06-15 02:48:00,
2013-06-14 22:53:00,61.2,52.5,30.09,ESE,121,2.5,3.8,73,0.00,,CLR,0.01,VWS V14.00,2013-06-15 02:53:00,
2013-06-14 22:58:00,61.2,52.9,30.09,ENE,75,0.0,0.0,74,0.00,,CLR,0.01,VWS V14.00,2013-06-15 02:58:00,
2013-06-14 23:03:00,60.7,52.7,30.09,NNW,328,3.4,4.8,75,0.00,,CLR,0.01,VWS V14.00,2013-06-15 03:03:00,
2013-06-14 23:08:00,60.1,52.6,30.09,NNW,338,0.0,0.0,76,0.00,,CLR,0.01,VWS V14.00,2013-06-15 03:08:00,
2013-06-14 23:13:00,60.3,52.7,30.09,East,88,0.0,2.7,76,0.00,,CLR,0.01,VWS V14.00,2013-06-15 03:13:00,
2013-06-14 23:18:00,60.1,52.9,30.09,SSE,152,0.0,2.7,77,0.00,,CLR,0.01,VWS V14.00,2013-06-15 03:18:00,
2013-06-14 23:24:00,60.1,52.9,30.09,SSE,152,0.0,0.0,77,0.00,,CLR,0.01,VWS V14.00,2013-06-15 03:24:00,
2013-06-14 23:29:00,59.4,52.2,30.09,East,93,3.0,3.2,77,0.00,,CLR,0.01,VWS V14.00,2013-06-15 03:29:00,
2013-06-14 23:34:00,59.6,53.1,30.09,East,87,3.0,3.2,79,0.00,,CLR,0.01,VWS V14.00,2013-06-15 03:34:00,
2013-06-14 23:39:00,59.2,52.7,30.09,East,87,0.0,3.2,79,0.00,,CLR,0.01,VWS V14.00,2013-06-15 03:39:00,
2013-06-14 23:44:00,58.8,52.7,30.09,WNW,282,0.0,3.2,80,0.00,,CLR,0.01,VWS V14.00,2013-06-15 03:44:00,
2013-06-14 23:49:00,58.7,52.5,30.09,WNW,301,0.0,3.2,80,0.00,,CLR,0.01,VWS V14.00,2013-06-15 03:49:00,
2013-06-14 23:54:00,58.8,53.0,30.09,ENE,72,2.5,3.2,81,0.00,,CLR,0.01,VWS V14.00,2013-06-15 03:54:00,
2013-06-14 23:59:00,58.8,53.4,30.09,ESE,107,3.0,4.3,82,0.00,,CLR,0.01,VWS V14.00,2013-06-15 03:59:00,